Home   Weather   Mesquite   Past weeks

Flag for USA Past Weather in Mesquite, Texas, USA — Yesterday and Last 2 Weeks

Now
73 °F

Low clouds.


Feels Like: 68 °F
Forecast: 73 / 87 °F
Wind: No wind

Location: Mesquite Metro Airport

Current Time: Sep 25, 2016 at 9:02:20 AM

Latest Report: Sep 25, 2016 at 7:50 AM


Visibility: 10 mi

Pressure: 30.01 "Hg

Humidity: 100%

Dew Point: 73 °F

Location of MesquiteLocation

Past Weather in Mesquite — Graph

°F

Mesquite Temperature Yesterday

Maximum temperature yesterday: 90 °F (at 12:50 PM)
Minimum temperature yesterday: 73 °F (at 6:35 AM)
Average temperature yesterday: 79 °F

High & Low Weather Summary for the Past Weeks

 TemperatureHumidityPressure
High99 °F (Sep 19, 2:50 PM)100% (Sep 10, 7:50 AM)30.21 "Hg (Sep 10, 7:50 AM)
Low63 °F (Sep 11, 6:50 AM)28% (Sep 22, 1:50 PM)29.85 "Hg (Sep 16, 7:50 PM)
Average78 °F76%30.01 "Hg
* Reported Sep 10 7:50 AM — Sep 25 7:50 AM, Mesquite, Weather by CustomWeather, © 2016

Note: Actual official high and low records may vary slightly from our data, if they occured in-between our weather recording intervals... More about our weather records

Advertising

Mesquite Weather History for the Previous 24 Hours

Scroll right to see more
 ConditionsComfort  
Time TempWeatherWind HumidityBarometerVisibility
7:50 AM
Sun, Sep 25
73 °FLow clouds.No wind100%30.01 "Hg10 mi
6:50 AM73 °FLow clouds.3 mph100%30.01 "Hg10 mi
6:35 AM73 °FLow clouds.No wind100%30.00 "Hg10 mi
6:15 AM73 °FMostly cloudy.3 mph100%30.00 "Hg10 mi
5:55 AM73 °FMostly cloudy.3 mph98%30.00 "Hg10 mi
5:35 AM73 °FPassing clouds.No wind98%29.99 "Hg10 mi
5:20 AM73 °FClear.No wind97%30.00 "Hg10 mi
4:55 AM74 °FPassing clouds.5 mph94%29.99 "Hg10 mi
4:35 AM74 °FPassing clouds.3 mph92%29.99 "Hg10 mi
4:15 AM75 °FOvercast.6 mph91%29.99 "Hg10 mi
3:55 AM75 °FOvercast.5 mph91%29.99 "Hg10 mi
3:35 AM75 °FPassing clouds.5 mph90%29.98 "Hg10 mi
3:15 AM75 °FPassing clouds.6 mph89%29.99 "Hg10 mi
2:55 AM75 °FClear.6 mph87%29.99 "Hg10 mi
2:35 AM75 °FClear.6 mph87%29.98 "Hg10 mi
2:15 AM75 °FPassing clouds.6 mph85%29.98 "Hg10 mi
1:55 AM75 °FPassing clouds.5 mph84%29.98 "Hg10 mi
1:35 AM76 °FPassing clouds.5 mph82%29.98 "Hg10 mi
1:15 AM76 °FPassing clouds.5 mph80%29.98 "Hg10 mi
12:55 AM77 °FClear.6 mph75%29.98 "Hg10 mi
12:35 AM78 °FClear.8 mph74%29.98 "Hg10 mi
12:15 AM78 °FClear.5 mph73%29.99 "Hg10 mi
11:55 PM
Sat, Sep 24
79 °FClear.5 mph70%29.99 "Hg10 mi
11:15 PM80 °FClear.7 mph69%29.97 "Hg10 mi
10:55 PM81 °FClear.10 mph67%29.96 "Hg10 mi
10:15 PM82 °FPassing clouds.9 mph68%29.95 "Hg10 mi
9:55 PM82 °FClear.7 mph67%29.94 "Hg10 mi
9:15 PM82 °FClear.6 mph65%29.94 "Hg10 mi
7:50 PM84 °FClear.9 mph62%29.91 "Hg10 mi
6:50 PM88 °FSunny.13 mph52%29.91 "Hg10 mi
5:50 PM90 °FSunny.10 mph52%29.90 "Hg10 mi
4:50 PM88 °FSunny.7 mph55%29.92 "Hg10 mi
3:50 PM88 °FSunny.7 mph55%29.94 "Hg10 mi
2:50 PM88 °FSunny.8 mph55%29.96 "Hg10 mi
1:50 PM88 °FPartly sunny.12 mph55%29.99 "Hg10 mi
12:50 PM90 °FPartly sunny.12 mph52%30.01 "Hg7 mi
10:50 AM84 °FBroken clouds.12 mph70%30.04 "Hg7 mi
9:50 AM79 °FLow clouds.8 mph89%30.05 "Hg7 mi
Weather by CustomWeather, © 2016

See weather overviewHow to use our weather pages